[[{"header":{"parameterUnit":"m.s-1","parameterCategory":1,"la1":30.2991,"la2":30.254,"lo1":-89.0895,"lo2":-89.0444,"dy":0.0017,"dx":0.0017,"nx":28,"ny":28,"refTime":"2025-06-02T21:00:00:Z","depth":0,"parameterNumber":2,"parameterNumberName":"U-component_of_WINDS"},"data":[0,0,0,0,0,0,0,0,0,0,0,0,0,0,0,0,0,0,0,0,0,0,0,0,0,0,0,0,0,0,0,0,0,0,0,0,0,0,0,0,0,0,0,0,0,0,0,0,0,0,0,0,0,0,0,0,0,0,-1.8453,-1.8453,0,-1.8432,-1.8432,-1.8432,-1.8373,-1.8372,-1.8371,-1.837,-1.8349,-1.835,-1.8351,0,0,0,0,0,0,0,0,0,0,0,0,0,-1.8444,-1.8444,-1.8453,-1.8453,-1.8452,-1.8432,-1.8432,-1.8432,-1.8374,-1.8372,-1.837,-1.8369,-1.8349,-1.835,-1.8351,0,0,0,0,0,0,0,0,0,0,0,0,0,-1.8438,-1.8444,-1.8453,-1.8421,-1.8418,-1.8432,-1.8432,-1.8432,-1.8374,-1.8372,-1.837,-1.8368,-1.8349,-1.835,-1.8351,-1.8395,0,0,-1.8354,-1.8354,0,0,0,0,0,0,0,0,-1.8438,-1.8438,-1.8426,-1.8423,-1.842,-1.8403,-1.8421,-1.8419,-1.8374,-1.8391,-1.837,-1.8367,-1.8369,-1.8368,-1.8368,-1.8394,-1.8393,-1.8354,-1.8354,-1.8355,-1.8355,0,0,0,0,0,0,0,-1.8439,-1.8439,-1.8445,-1.8426,-1.8422,-1.8408,-1.8405,-1.8421,-1.8391,-1.8389,-1.8385,-1.8383,-1.8367,-1.8368,-1.8368,-1.8393,-1.8354,-1.8355,-1.8355,-1.8356,-1.8456,-1.8458,0,0,0,0,0,0,-1.8444,-1.844,-1.8445,-1.8444,-1.8424,-1.841,-1.8407,-1.8411,-1.839,-1.8385,-1.8385,-1.838,-1.8367,-1.8366,-1.8367,-1.8418,-1.8355,-1.8356,-1.8356,-1.8454,-1.8456,-1.8458,0,0,0,0,0,0,-1.8444,-1.8445,-1.8446,-1.8441,-1.844,-1.8412,-1.8417,-1.8411,-1.8412,-1.8387,-1.8382,-1.8391,-1.8365,-1.8365,-1.8389,-1.8417,-1.8356,-1.8357,-1.8451,-1.8454,-1.8457,-1.8521,0,0,0,0,0,0,-1.8444,-1.8445,-1.8461,-1.8441,-1.844,-1.8468,-1.8419,-1.8412,-1.8414,-1.8408,-1.8391,-1.8387,-1.8364,-1.8388,-1.839,-1.8417,-1.8358,-1.8448,-1.8453,-1.8456,-1.8517,-1.8526,-1.8535,0,0,0,0,0,-1.8443,-1.848,-1.8462,-1.8463,-1.846,-1.847,-1.8469,-1.8442,-1.8416,-1.8432,-1.8417,-1.8387,-1.8413,-1.839,-1.8392,-1.842,-1.8447,-1.8451,-1.8456,-1.8513,-1.8524,-1.8534,0,0,0,0,0,0,-1.8503,-1.8476,-1.8457,-1.8487,-1.8481,-1.846,-1.8479,-1.8455,-1.8456,-1.8451,-1.8417,-1.8414,-1.8442,-1.8433,-1.8409,-1.8463,-1.8425,-1.8431,-1.8468,-1.8479,-1.8488,-1.8489,-1.8359,0,0,0,0,0,-1.8519,-1.853,-1.8506,-1.8535,-1.8534,-1.8507,-1.8511,-1.849,-1.8483,-1.848,-1.8466,-1.846,-1.8467,-1.8472,-1.8477,-1.8515,-1.8512,-1.8535,-1.8544,-1.8552,-1.8557,-1.8578,-1.8589,-1.8474,-1.8474,-1.8474,0,0,-1.8554,-1.8541,-1.8549,-1.8547,-1.854,-1.8552,-1.8505,-1.852,-1.8529,-1.8482,-1.8504,-1.8494,-1.8485,-1.8516,-1.8529,-1.851,-1.8588,-1.8558,-1.8564,-1.8565,-1.8584,-1.8595,-1.8605,-1.8477,-1.8476,-1.8476,0,0,-1.8623,-1.8614,-1.8638,-1.8632,-1.8622,-1.8605,-1.8611,-1.8594,-1.8585,-1.8606,-1.8572,-1.8583,-1.8595,-1.8591,-1.859,-1.866,-1.8634,-1.8663,-1.871,-1.8731,-1.874,-1.8748,-1.8774,-1.8784,-1.8668,-1.8668,-1.8668,0,-1.8667,-1.8684,-1.8653,-1.8671,-1.8671,-1.863,-1.8655,-1.8651,-1.8644,-1.8646,-1.8624,-1.8639,-1.8631,-1.8661,-1.8679,-1.8679,-1.8686,-1.8664,-1.8741,-1.8749,-1.8755,-1.878,-1.879,-1.8672,-1.8671,-1.8671,-1.867,0,-1.8739,-1.8751,-1.8772,-1.8766,-1.8769,-1.879,-1.8764,-1.8771,-1.8751,-1.8737,-1.876,-1.8748,-1.8751,-1.8756,-1.8736,-1.8785,-1.8773,-1.8747,-1.8708,-1.8771,-1.8793,-1.8803,-1.8677,-1.8675,-1.8674,-1.8673,0,0,-1.8844,-1.8823,-1.8831,-1.8829,-1.8815,-1.8824,-1.8844,-1.8847,-1.8854,-1.8851,-1.8868,-1.888,-1.8856,-1.8855,-1.8835,-1.8853,-1.8912,-1.8825,-1.8824,-1.8842,-1.8966,-1.8987,-1.8998,-1.8894,-1.8896,-1.8897,-1.8967,0,-1.891,-1.8943,-1.8917,-1.8955,-1.8966,-1.8928,-1.8946,-1.894,-1.8928,-1.8936,-1.8922,-1.8932,-1.8899,-1.8898,-1.8915,-1.8901,-1.8936,-1.8895,-1.891,-1.8911,-1.8914,-1.901,-1.9031,-1.9098,-1.8976,-1.8977,-1.8978,0,-1.8992,-1.8993,-1.9032,-1.9018,-1.9021,-1.9038,-1.9039,-1.9047,-1.9041,-1.9031,-1.9031,-1.9007,-1.9026,-1.8989,-1.9016,-1.8989,-1.8994,-1.8988,-1.899,-1.8991,-1.8949,-1.9014,-1.9119,-1.913,-1.8992,-1.8991,-1.899,0,-1.9066,-1.9077,-1.9102,-1.9101,-1.9085,-1.9098,-1.9092,-1.9083,-1.9087,-1.9089,-1.9091,-1.9095,-1.9098,-1.9102,-1.9079,-1.9053,-1.911,-1.907,-1.9103,-1.9104,-1.9117,-1.9117,-1.9225,-1.9119,-1.9119,-1.9119,-1.9118,0,-1.9143,-1.9169,-1.9135,-1.9151,-1.9179,-1.915,-1.9179,-1.9169,-1.9162,-1.9176,-1.9143,-1.9157,-1.9126,-1.9137,-1.9119,-1.9146,-1.9147,-1.914,-1.9135,-1.9143,-1.9144,-1.9146,-1.9141,-1.9121,-1.9121,-1.912,-1.912,0,-1.9231,-1.9209,-1.9235,-1.9218,-1.9214,-1.9236,-1.9222,-1.9236,-1.9222,-1.924,-1.9242,-1.922,-1.9231,-1.9209,-1.9217,-1.9206,-1.9244,-1.9231,-1.9246,-1.9242,-1.9277,-1.9275,-1.9391,-1.9406,-1.929,-1.9291,-1.9292,0,-1.9282,-1.9301,-1.9287,-1.9293,-1.9289,-1.9301,-1.9305,-1.9278,-1.9283,-1.9279,-1.9294,-1.9303,-1.9308,-1.9328,-1.9313,-1.932,-1.9308,-1.9348,-1.9309,-1.9317,-1.931,-1.931,-1.9312,-1.9357,-1.9358,-1.9359,-1.936,0,-1.9375,-1.9364,-1.9371,-1.9375,-1.9381,-1.9383,-1.9382,-1.939,-1.9361,-1.937,-1.9381,-1.9385,-1.9394,-1.9404,-1.9408,-1.9402,-1.9377,-1.9373,-1.9381,-1.939,-1.9398,-1.9396,-1.9269,-1.937,-1.9369,-1.9369,-1.9368,-1.9368,-1.9447,-1.9462,-1.9455,-1.9465,-1.9462,-1.9463,-1.9476,-1.9463,-1.9472,-1.9478,-1.9461,-1.9477,-1.9472,-1.9474,-1.9471,-1.9484,-1.9466,-1.9478,-1.9481,-1.9484,-1.9491,-1.9396,-1.9484,-1.9484,-1.9484,-1.9484,-1.9483,0,-1.9539,-1.9533,-1.9542,-1.9543,-1.9551,-1.9527,-1.9525,-1.9534,-1.9548,-1.9545,-1.9552,-1.9566,-1.9576,-1.9562,-1.957,-1.9582,-1.9571,-1.9585,-1.9585,-1.9584,-1.9505,-1.9498,-1.9594,-1.9594,-1.9594,-1.9594,-1.9594,-1.9594,-1.9588,-1.9614,-1.9603,-1.9627,-1.9621,-1.9636,-1.9638,-1.9639,-1.9637,-1.9654,-1.9662,-1.9653,-1.9647,-1.9654,-1.9662,-1.9658,-1.9663,-1.9681,-1.9674,-1.96,-1.9589,-1.9579,-1.9572,-1.9682,-1.9683,-1.9751,-1.9752,-1.9752]},{"header":{"parameterUnit":"m.s-1","parameterCategory":1,"la1":30.2991,"la2":30.254,"lo1":-89.0895,"lo2":-89.0444,"dy":0.0017,"dx":0.0017,"nx":28,"ny":28,"refTime":"2025-06-02T21:00:00:Z","depth":0,"parameterNumber":3,"parameterNumberName":"V-component_of_WINDS"},"data":[0,0,0,0,0,0,0,0,0,0,0,0,0,0,0,0,0,0,0,0,0,0,0,0,0,0,0,0,0,0,0,0,0,0,0,0,0,0,0,0,0,0,0,0,0,0,0,0,0,0,0,0,0,0,0,0,0,0,3.2552,3.2552,0,3.2532,3.2532,3.2531,3.2578,3.258,3.2581,3.2583,3.2557,3.2555,3.2553,0,0,0,0,0,0,0,0,0,0,0,0,0,3.2626,3.2625,3.2552,3.2552,3.2552,3.2532,3.2532,3.2531,3.2578,3.258,3.2582,3.2583,3.2558,3.2555,3.2553,0,0,0,0,0,0,0,0,0,0,0,0,0,3.2599,3.2624,3.2552,3.2573,3.2574,3.2532,3.2532,3.2531,3.2578,3.258,3.2582,3.2584,3.2558,3.2555,3.2552,3.2488,0,0,3.2543,3.2541,0,0,0,0,0,0,0,0,3.26,3.2596,3.257,3.2571,3.2573,3.256,3.2549,3.2516,3.2577,3.2576,3.2583,3.2585,3.2556,3.2553,3.2544,3.2486,3.2485,3.2542,3.254,3.2539,3.2538,0,0,0,0,0,0,0,3.2602,3.2597,3.2544,3.2569,3.2571,3.2581,3.258,3.2543,3.2553,3.2576,3.258,3.2577,3.2557,3.2547,3.2544,3.2485,3.2542,3.254,3.2538,3.2536,3.2372,3.2369,0,0,0,0,0,0,3.2602,3.2598,3.2545,3.2543,3.2593,3.2578,3.2577,3.2562,3.2554,3.2555,3.2575,3.2579,3.2551,3.2547,3.2543,3.2465,3.2539,3.2536,3.2534,3.2374,3.2371,3.2368,0,0,0,0,0,0,3.2604,3.2597,3.2545,3.2572,3.2566,3.2574,3.2557,3.256,3.255,3.2553,3.2555,3.2563,3.2553,3.2547,3.2501,3.2465,3.2535,3.2532,3.2377,3.2373,3.237,3.231,0,0,0,0,0,0,3.2606,3.2597,3.2574,3.2571,3.2565,3.2505,3.2555,3.2558,3.2545,3.255,3.2542,3.2543,3.2554,3.2505,3.2498,3.2462,3.2529,3.238,3.2375,3.2371,3.2315,3.2304,3.2295,0,0,0,0,0,3.2608,3.2557,3.2572,3.2565,3.2536,3.2503,3.2499,3.2514,3.2542,3.2518,3.252,3.2543,3.2471,3.25,3.2492,3.2455,3.2383,3.2377,3.2371,3.2319,3.2306,3.2296,0,0,0,0,0,0,3.2553,3.2557,3.2574,3.2521,3.2511,3.2511,3.248,3.25,3.2481,3.2487,3.2506,3.2503,3.2452,3.245,3.2482,3.2391,3.2431,3.2424,3.2394,3.2382,3.2373,3.2373,3.2527,0,0,0,0,0,3.2535,3.251,3.2514,3.2466,3.2461,3.2471,3.2458,3.2471,3.2461,3.2457,3.2455,3.2443,3.2418,3.24,3.2377,3.2316,3.2313,3.2286,3.2276,3.2268,3.226,3.2225,3.2213,3.235,3.235,3.235,0,0,3.2497,3.2496,3.2479,3.2455,3.245,3.2421,3.2468,3.2436,3.2414,3.2451,3.2407,3.2406,3.2394,3.2339,3.2315,3.2335,3.2222,3.2261,3.2255,3.2251,3.2218,3.2205,3.2194,3.2346,3.2347,3.2347,0,0,3.2413,3.241,3.237,3.2363,3.2355,3.2362,3.2352,3.2349,3.235,3.2306,3.2333,3.2307,3.2264,3.2253,3.2243,3.2155,3.2175,3.2147,3.2095,3.206,3.205,3.204,3.2006,3.1994,3.214,3.214,3.214,0,3.2365,3.2325,3.2346,3.2312,3.23,3.2335,3.2292,3.2285,3.2268,3.2258,3.2282,3.2227,3.2222,3.2164,3.2143,3.2134,3.2121,3.2146,3.205,3.204,3.2032,3.1999,3.1987,3.2136,3.2137,3.2137,3.2137,0,3.2266,3.2238,3.2206,3.219,3.2175,3.2137,3.2151,3.2133,3.2147,3.2152,3.2106,3.2101,3.2077,3.2065,3.2079,3.2009,3.2021,3.2047,3.2087,3.2015,3.1984,3.1973,3.2131,3.2132,3.2133,3.2134,0,0,3.2144,3.2142,3.2129,3.2122,3.2115,3.2092,3.2056,3.2034,3.2017,3.2005,3.1972,3.1935,3.1959,3.1947,3.196,3.193,3.1858,3.1959,3.1959,3.1938,3.1778,3.1756,3.1741,3.1873,3.1871,3.1869,3.1778,0,3.2058,3.1996,3.2014,3.1951,3.1923,3.1957,3.1924,3.1916,3.1919,3.1895,3.1899,3.1871,3.1906,3.1899,3.1871,3.1872,3.1825,3.188,3.184,3.1838,3.1839,3.1726,3.1703,3.1617,3.1766,3.1764,3.1763,0,3.1949,3.1934,3.1868,3.1865,3.1854,3.1825,3.1806,3.1783,3.1774,3.1778,3.1765,3.1784,3.1746,3.1789,3.1735,3.1772,3.1757,3.1756,3.1753,3.1747,3.1794,3.1714,3.1591,3.1576,3.1745,3.1747,3.1748,0,3.1863,3.1826,3.1782,3.1775,3.1771,3.1749,3.1746,3.174,3.1725,3.1708,3.1698,3.1677,3.1664,3.1646,3.1658,3.1689,3.1601,3.1646,3.1601,3.1601,3.1578,3.1579,3.1447,3.1574,3.1575,3.1575,3.1575,0,3.1763,3.1721,3.1743,3.1715,3.1668,3.1689,3.1641,3.1642,3.1636,3.1608,3.1636,3.1608,3.1627,3.1601,3.161,3.1563,3.1558,3.1559,3.1561,3.1554,3.1553,3.1542,3.1547,3.1571,3.1572,3.1573,3.1573,0,3.1657,3.1671,3.1624,3.1625,3.1624,3.1589,3.1589,3.1562,3.1569,3.1533,3.1525,3.1534,3.1505,3.1516,3.1484,3.1491,3.1429,3.1441,3.1432,3.1434,3.1388,3.1391,3.1242,3.1222,3.1365,3.1363,3.1362,0,3.1591,3.156,3.1558,3.1541,3.1537,3.151,3.1496,3.1516,3.1499,3.1486,3.146,3.1434,3.1413,3.1364,3.1366,3.1342,3.1351,3.1301,3.1347,3.1341,3.1347,3.1347,3.1343,3.129,3.1288,3.1287,3.1286,0,3.1472,3.148,3.1459,3.1439,3.1421,3.1407,3.1394,3.1379,3.1398,3.1378,3.1349,3.1333,3.1301,3.1273,3.1251,3.1247,3.1268,3.1272,3.126,3.1251,3.1246,3.1245,3.1403,3.1274,3.1276,3.1276,3.1277,3.1278,3.1382,3.1354,3.1348,3.1323,3.1317,3.1304,3.1279,3.1283,3.1259,3.1236,3.1249,3.1214,3.1205,3.1178,3.1171,3.1143,3.1162,3.1145,3.114,3.1135,3.1127,3.1253,3.1139,3.114,3.114,3.114,3.1141,0,3.1261,3.1259,3.1236,3.1218,3.1198,3.1223,3.1211,3.1192,3.1161,3.1152,3.1131,3.1097,3.107,3.1072,3.1046,3.1023,3.1032,3.1016,3.1016,3.1014,3.1113,3.1125,3.1009,3.1009,3.1009,3.1009,3.1009,3.1009,3.1195,3.115,3.1157,3.1108,3.1107,3.1074,3.1064,3.1052,3.1045,3.1006,3.0984,3.0986,3.098,3.0955,3.0931,3.0932,3.092,3.0898,3.0903,3.0994,3.1007,3.102,3.103,3.0897,3.0896,3.0806,3.0805,3.0804]}]]